| time (UTC) | temp F | wind direction | speed knots | gust knots | rain 1hr in | rain 24hr in | rain mn in | humidity % | barometer mb |
| 20260507160022 | 63 | 297 | 0.0 | 0.0 | 0.00 | 0.00 | 0.00 | 88 | 1017.0 |
| 20260507155517 | 63 | 300 | 0.0 | 0.0 | 0.00 | 0.00 | 0.00 | 88 | 1016.9 |
| 20260507155014 | 63 | 341 | 0.0 | 0.9 | 0.00 | 0.00 | 0.00 | 88 | 1016.7 |
| 20260507154511 | 63 | 343 | 0.0 | 1.7 | 0.00 | 0.00 | 0.00 | 87 | 1016.9 |
| 20260507154009 | 63 | 338 | 1.7 | 1.7 | 0.00 | 0.00 | 0.00 | 87 | 1016.8 |
| 20260507153505 | 63 | 312 | 0.0 | 1.7 | 0.00 | 0.00 | 0.00 | 87 | 1016.7 |
| 20260507153001 | 63 | 347 | 0.0 | 0.0 | 0.00 | 0.00 | 0.00 | 88 | 1016.8 |
| 20260507152457 | 63 | 305 | 0.0 | 0.0 | 0.00 | 0.00 | 0.00 | 89 | 1017.0 |
| 20260507151954 | 63 | 324 | 0.0 | 0.0 | 0.00 | 0.00 | 0.00 | 90 | 1016.8 |
| 20260507151450 | 63 | 331 | 0.0 | 0.0 | 0.00 | 0.00 | 0.00 | 90 | 1016.8 |
| 20260507150947 | 63 | 323 | 0.0 | 0.0 | 0.00 | 0.00 | 0.00 | 90 | 1016.9 |
| 20260507150444 | 63 | 306 | 0.0 | 0.0 | 0.00 | 0.00 | 0.00 | 90 | 1016.9 |
| 20260507145940 | 63 | 328 | 0.0 | 0.0 | 0.00 | 0.00 | 0.00 | 90 | 1016.6 |
| 20260507145435 | 62 | 316 | 0.0 | 0.0 | 0.00 | 0.00 | 0.00 | 91 | 1016.7 |
| 20260507144933 | 62 | 321 | 0.0 | 0.0 | 0.00 | 0.00 | 0.00 | 91 | 1016.8 |
| 20260507144430 | 62 | 311 | 0.0 | 0.9 | 0.00 | 0.00 | 0.00 | 91 | 1016.8 |
| 20260507143927 | 62 | 356 | 0.9 | 1.7 | 0.00 | 0.00 | 0.00 | 91 | 1016.9 |
| 20260507143424 | 62 | 298 | 0.0 | 0.9 | 0.00 | 0.00 | 0.00 | 92 | 1017.0 |
| 20260507142921 | 62 | 298 | 0.0 | 0.9 | 0.00 | 0.00 | 0.00 | 92 | 1017.0 |
| 20260507142416 | 62 | 302 | 0.0 | 0.9 | 0.00 | 0.00 | 0.00 | 92 | 1016.8 |
| 20260507141914 | 62 | 285 | 0.0 | 0.0 | 0.00 | 0.00 | 0.00 | 92 | 1016.9 |
| 20260507141410 | 63 | 277 | 0.0 | 0.0 | 0.00 | 0.00 | 0.00 | 92 | 1016.8 |
| 20260507140907 | 63 | 284 | 0.0 | 0.0 | 0.00 | 0.00 | 0.00 | 92 | 1016.7 |
| 20260507140403 | 63 | 293 | 0.0 | 0.0 | 0.00 | 0.00 | 0.00 | 91 | 1016.7 |
| 20260507135901 | 62 | 287 | 0.0 | 0.0 | 0.00 | 0.00 | 0.00 | 91 | 1016.8 |
| 20260507135357 | 62 | 292 | 0.0 | 0.0 | 0.00 | 0.00 | 0.00 | 91 | 1016.8 |
| 20260507134855 | 63 | 316 | 0.0 | 0.0 | 0.00 | 0.00 | 0.00 | 91 | 1016.7 |
| 20260507134351 | 63 | 299 | 0.0 | 0.0 | 0.00 | 0.00 | 0.00 | 92 | 1016.6 |
| 20260507133847 | 63 | 289 | 0.0 | 0.0 | 0.00 | 0.00 | 0.00 | 92 | 1016.7 |
| 20260507133343 | 63 | 313 | 0.0 | 0.0 | 0.00 | 0.00 | 0.00 | 92 | 1016.8 |
| 20260507132842 | 63 | 295 | 0.0 | 0.0 | 0.00 | 0.00 | 0.00 | 92 | 1016.9 |
| 20260507132338 | 64 | 312 | 0.0 | 0.0 | 0.00 | 0.00 | 0.00 | 93 | 1016.6 |
| 20260507131835 | 64 | 292 | 0.0 | 0.0 | 0.00 | 0.00 | 0.00 | 93 | 1016.8 |
| 20260507131332 | 64 | 274 | 0.0 | 0.0 | 0.00 | 0.00 | 0.00 | 93 | 1016.9 |
| 20260507130829 | 64 | 289 | 0.0 | 0.0 | 0.00 | 0.00 | 0.00 | 93 | 1016.9 |
| 20260507130325 | 64 | 287 | 0.0 | 0.0 | 0.00 | 0.00 | 0.00 | 93 | 1016.9 |
| 20260507125825 | 63 | 278 | 0.0 | 0.0 | 0.00 | 0.00 | 0.00 | 93 | 1016.9 |
| 20260507125322 | 63 | 305 | 0.0 | 0.0 | 0.00 | 0.00 | 0.00 | 93 | 1016.8 |
| 20260507124819 | 63 | 289 | 0.0 | 0.0 | 0.00 | 0.00 | 0.00 | 93 | 1016.9 |
| 20260507124315 | 63 | 289 | 0.0 | 0.0 | 0.00 | 0.00 | 0.00 | 93 | 1016.9 |
| 20260507123814 | 63 | 308 | 0.0 | 0.0 | 0.00 | 0.00 | 0.00 | 93 | 1017.0 |
| 20260507123311 | 64 | 316 | 0.0 | 0.0 | 0.00 | 0.00 | 0.00 | 93 | 1017.0 |
| 20260507122807 | 64 | 292 | 0.0 | 0.0 | 0.00 | 0.00 | 0.00 | 93 | 1017.0 |
| 20260507122306 | 64 | 299 | 0.0 | 0.0 | 0.00 | 0.00 | 0.00 | 93 | 1016.9 |
| 20260507121758 | 64 | 286 | 0.0 | 0.0 | 0.00 | 0.00 | 0.00 | 93 | 1017.1 |
| 20260507121254 | 64 | 306 | 0.0 | 0.0 | 0.00 | 0.00 | 0.00 | 92 | 1017.1 |
| 20260507120750 | 64 | 273 | 0.0 | 0.0 | 0.00 | 0.00 | 0.00 | 92 | 1016.8 |
| 20260507120247 | 64 | 288 | 0.0 | 0.0 | 0.00 | 0.00 | 0.00 | 91 | 1017.0 |
| 20260507115743 | 64 | 313 | 0.0 | 0.0 | 0.00 | 0.00 | 0.00 | 91 | 1017.0 |
| 20260507115239 | 64 | 283 | 0.0 | 0.0 | 0.00 | 0.00 | 0.00 | 91 | 1017.1 |
| 20260507114735 | 64 | 295 | 0.0 | 0.0 | 0.00 | 0.00 | 0.00 | 90 | 1017.1 |
| 20260507114233 | 64 | 268 | 0.0 | 0.0 | 0.00 | 0.00 | 0.00 | 90 | 1017.1 |
| 20260507113730 | 65 | 284 | 0.0 | 0.9 | 0.00 | 0.00 | 0.00 | 89 | 1017.2 |
| 20260507113227 | 65 | 309 | 0.0 | 0.9 | 0.00 | 0.00 | 0.00 | 89 | 1017.2 |
| 20260507112724 | 65 | 301 | 0.0 | 0.9 | 0.00 | 0.00 | 0.00 | 89 | 1017.2 |
| 20260507112221 | 65 | 305 | 0.0 | 0.0 | 0.00 | 0.00 | 0.00 | 89 | 1017.4 |
| 20260507111719 | 65 | 308 | 0.9 | 0.9 | 0.00 | 0.00 | 0.00 | 90 | 1017.3 |
| 20260507111216 | 65 | 320 | 0.0 | 0.9 | 0.00 | 0.00 | 0.00 | 90 | 1017.6 |
| 20260507110711 | 65 | 299 | 0.0 | 0.0 | 0.00 | 0.00 | 0.00 | 90 | 1017.6 |
| 20260507110208 | 65 | 285 | 0.0 | 0.0 | 0.00 | 0.00 | 0.00 | 91 | 1017.7 |
| 20260507105705 | 64 | 327 | 0.0 | 0.0 | 0.00 | 0.00 | 0.00 | 91 | 1017.7 |
| 20260507105201 | 64 | 295 | 0.0 | 0.9 | 0.00 | 0.00 | 0.00 | 92 | 1017.7 |
| 20260507104658 | 64 | 292 | 0.0 | 0.0 | 0.00 | 0.00 | 0.00 | 92 | 1017.6 |
| 20260507104154 | 64 | 300 | 0.0 | 0.0 | 0.00 | 0.00 | 0.00 | 92 | 1017.8 |
| 20260507103651 | 64 | 285 | 0.0 | 0.0 | 0.00 | 0.00 | 0.00 | 92 | 1018.1 |
| 20260507103148 | 64 | 278 | 0.0 | 0.0 | 0.00 | 0.00 | 0.00 | 92 | 1017.8 |
| 20260507102644 | 64 | 271 | 0.0 | 0.0 | 0.00 | 0.00 | 0.00 | 92 | 1017.9 |
| 20260507102140 | 64 | 281 | 0.0 | 0.0 | 0.00 | 0.00 | 0.00 | 92 | 1018.2 |
| 20260507101636 | 64 | 286 | 0.0 | 0.0 | 0.00 | 0.00 | 0.00 | 92 | 1018.3 |
| 20260507101132 | 64 | 292 | 0.0 | 0.0 | 0.00 | 0.00 | 0.00 | 92 | 1017.9 |
| 20260507100630 | 65 | 251 | 0.0 | 0.0 | 0.00 | 0.00 | 0.00 | 92 | 1018.4 |
| 20260507100128 | 65 | 279 | 0.0 | 0.0 | 0.00 | 0.00 | 0.00 | 92 | 1018.2 |
| 20260507095626 | 65 | 91 | 0.0 | 0.0 | 0.00 | 0.00 | 0.00 | 92 | 1018.4 |
| 20260507095122 | 65 | 280 | 0.0 | 0.9 | 0.00 | 0.00 | 0.00 | 92 | 1018.2 |
| 20260507094618 | 65 | 278 | 0.0 | 0.0 | 0.00 | 0.00 | 0.00 | 92 | 1018.1 |
| 20260507094115 | 65 | 279 | 0.0 | 0.0 | 0.00 | 0.00 | 0.00 | 92 | 1018.4 |
| 20260507093612 | 65 | 266 | 0.0 | 0.0 | 0.00 | 0.00 | 0.00 | 92 | 1018.2 |
| 20260507093111 | 65 | 291 | 0.0 | 0.0 | 0.00 | 0.00 | 0.00 | 92 | 1018.3 |
| 20260507092607 | 65 | 290 | 0.0 | 0.0 | 0.00 | 0.00 | 0.00 | 92 | 1018.4 |
| 20260507092104 | 66 | 286 | 0.0 | 0.0 | 0.00 | 0.00 | 0.00 | 92 | 1018.3 |
| 20260507091601 | 66 | 288 | 0.0 | 0.0 | 0.00 | 0.00 | 0.00 | 92 | 1018.5 |
| 20260507091057 | 66 | 286 | 0.0 | 0.0 | 0.00 | 0.00 | 0.00 | 92 | 1018.3 |
| 20260507090552 | 66 | 294 | 0.0 | 0.0 | 0.00 | 0.00 | 0.00 | 93 | 1018.3 |
| 20260507090050 | 66 | 302 | 0.0 | 0.0 | 0.00 | 0.00 | 0.00 | 93 | 1018.5 |
| 20260507085547 | 66 | 283 | 0.0 | 0.0 | 0.00 | 0.00 | 0.00 | 93 | 1018.6 |
| 20260507085043 | 66 | 274 | 0.0 | 0.0 | 0.00 | 0.00 | 0.00 | 93 | 1018.6 |
| 20260507084540 | 66 | 293 | 0.0 | 0.0 | 0.00 | 0.00 | 0.00 | 93 | 1018.7 |
| 20260507084037 | 66 | 292 | 0.0 | 0.0 | 0.00 | 0.00 | 0.00 | 93 | 1018.6 |
| 20260507083533 | 66 | 334 | 0.0 | 0.0 | 0.00 | 0.00 | 0.00 | 93 | 1018.6 |
| 20260507083031 | 66 | 254 | 0.0 | 0.0 | 0.00 | 0.00 | 0.00 | 93 | 1018.4 |
| 20260507082526 | 67 | 268 | 0.0 | 0.0 | 0.00 | 0.00 | 0.00 | 92 | 1018.6 |
| 20260507082023 | 67 | 268 | 0.0 | 0.0 | 0.00 | 0.00 | 0.00 | 91 | 1018.3 |
| 20260507081519 | 68 | 291 | 0.0 | 0.0 | 0.00 | 0.00 | 0.00 | 91 | 1018.4 |
| 20260507081017 | 68 | 311 | 0.0 | 0.0 | 0.00 | 0.00 | 0.00 | 90 | 1018.4 |
| 20260507080512 | 67 | 292 | 0.0 | 0.0 | 0.00 | 0.00 | 0.00 | 90 | 1018.4 |
| 20260507080009 | 67 | 282 | 0.0 | 0.0 | 0.00 | 0.00 | 0.00 | 89 | 1018.4 |
| 20260507075504 | 67 | 281 | 0.0 | 0.0 | 0.00 | 0.00 | 0.00 | 88 | 1018.5 |
| 20260507075001 | 68 | 279 | 0.0 | 0.0 | 0.00 | 0.00 | 0.00 | 87 | 1018.4 |
| 20260507074457 | 68 | 281 | 0.0 | 0.0 | 0.00 | 0.00 | 0.00 | 86 | 1018.4 |
| 20260507073956 | 68 | 279 | 0.0 | 0.0 | 0.00 | 0.00 | 0.00 | 86 | 1018.5 |
| 20260507073451 | 68 | 278 | 0.0 | 0.0 | 0.00 | 0.00 | 0.00 | 86 | 1018.3 |
| 20260507072948 | 68 | 290 | 0.0 | 0.0 | 0.00 | 0.00 | 0.00 | 86 | 1018.3 |
| 20260507072446 | 69 | 297 | 0.0 | 0.0 | 0.00 | 0.00 | 0.00 | 87 | 1018.2 |
| 20260507071943 | 69 | 290 | 0.0 | 0.0 | 0.00 | 0.00 | 0.00 | 86 | 1018.3 |
| 20260507071440 | 69 | 265 | 0.0 | 0.0 | 0.00 | 0.00 | 0.00 | 87 | 1018.1 |
| 20260507070937 | 69 | 271 | 0.0 | 0.0 | 0.00 | 0.00 | 0.00 | 89 | 1017.8 |
| 20260507070434 | 69 | 273 | 0.0 | 0.0 | 0.00 | 0.00 | 0.00 | 89 | 1017.8 |
| 20260507065931 | 69 | 202 | 0.0 | 0.0 | 0.00 | 0.00 | 0.00 | 90 | 1017.6 |
| 20260507065427 | 69 | 250 | 0.0 | 0.0 | 0.00 | 0.00 | 0.00 | 90 | 1017.7 |
| 20260507064925 | 69 | 255 | 0.0 | 0.0 | 0.00 | 0.00 | 0.00 | 91 | 1017.9 |
| 20260507064423 | 69 | 246 | 0.0 | 0.0 | 0.00 | 0.00 | 0.00 | 91 | 1017.8 |
| 20260507063921 | 69 | 250 | 0.0 | 0.0 | 0.00 | 0.00 | 0.00 | 90 | 1017.6 |
| 20260507063417 | 70 | 259 | 0.0 | 0.0 | 0.00 | 0.00 | 0.00 | 89 | 1017.7 |
| 20260507062914 | 70 | 241 | 0.0 | 0.0 | 0.00 | 0.00 | 0.00 | 89 | 1017.4 |
| 20260507062411 | 69 | 325 | 0.0 | 0.0 | 0.00 | 0.00 | 0.00 | 90 | 1017.3 |
| 20260507061909 | 70 | 292 | 0.0 | 0.0 | 0.00 | 0.00 | 0.00 | 92 | 1017.2 |
| 20260507061407 | 70 | 255 | 0.0 | 0.0 | 0.00 | 0.00 | 0.00 | 93 | 1017.3 |
| 20260507060905 | 70 | 73 | 0.0 | 0.0 | 0.00 | 0.00 | 0.00 | 93 | 1017.0 |
| 20260507060401 | 71 | 281 | 0.0 | 0.0 | 0.00 | 0.00 | 0.00 | 94 | 1017.2 |
| 20260507055858 | 71 | 246 | 0.0 | 0.0 | 0.00 | 0.00 | 0.00 | 94 | 1017.2 |
| 20260507055353 | 71 | 260 | 0.0 | 0.0 | 0.00 | 0.00 | 0.00 | 94 | 1017.4 |
| 20260507054850 | 71 | 249 | 0.0 | 0.0 | 0.00 | 0.00 | 0.00 | 94 | 1017.2 |
| 20260507054346 | 71 | 242 | 0.0 | 0.0 | 0.00 | 0.00 | 0.00 | 94 | 1017.0 |
| 20260507053844 | 71 | 251 | 0.0 | 0.0 | 0.00 | 0.00 | 0.00 | 94 | 1017.0 |
| 20260507053341 | 71 | 247 | 0.0 | 0.0 | 0.00 | 0.00 | 0.00 | 94 | 1017.2 |
| 20260507052840 | 71 | 247 | 0.0 | 0.0 | 0.00 | 0.00 | 0.00 | 93 | 1017.0 |
| 20260507052336 | 71 | 243 | 0.0 | 0.0 | 0.00 | 0.00 | 0.00 | 93 | 1017.1 |
| 20260507051834 | 71 | 77 | 0.9 | 1.7 | 0.00 | 0.00 | 0.00 | 93 | 1017.1 |
| 20260507051331 | 71 | 201 | 0.0 | 0.0 | 0.00 | 0.00 | 0.00 | 93 | 1017.1 |
| 20260507050828 | 71 | 244 | 0.9 | 1.7 | 0.00 | 0.00 | 0.00 | 93 | 1017.0 |
| 20260507050324 | 71 | 231 | 0.9 | 1.7 | 0.00 | 0.00 | 0.00 | 93 | 1016.7 |
| 20260507045821 | 72 | 221 | 0.0 | 0.0 | 0.00 | 0.00 | 0.00 | 93 | 1016.6 |
| 20260507045318 | 72 | 247 | 0.0 | 1.7 | 0.00 | 0.00 | 0.00 | 92 | 1016.7 |
| 20260507044815 | 72 | 225 | 1.7 | 2.6 | 0.00 | 0.00 | 0.00 | 91 | 1016.6 |
| 20260507044312 | 72 | 209 | 1.7 | 1.7 | 0.00 | 0.00 | 0.00 | 90 | 1016.6 |
| 20260507043808 | 73 | 220 | 2.6 | 5.2 | 0.00 | 0.00 | 0.00 | 89 | 1016.4 |
| 20260507043304 | 73 | 231 | 1.7 | 2.6 | 0.00 | 0.00 | 0.00 | 89 | 1016.4 |
| 20260507042801 | 73 | 249 | 0.9 | 1.7 | 0.00 | 0.00 | 0.00 | 89 | 1016.2 |
| 20260507042256 | 74 | 245 | 0.9 | 4.3 | 0.00 | 0.00 | 0.00 | 87 | 1016.3 |
| 20260507041754 | 74 | 238 | 1.7 | 5.2 | 0.00 | 0.00 | 0.00 | 87 | 1016.3 |
| 20260507041250 | 75 | 244 | 1.7 | 2.6 | 0.00 | 0.00 | 0.00 | 86 | 1016.0 |
| 20260507040747 | 75 | 245 | 0.9 | 2.6 | 0.00 | 0.00 | 0.00 | 86 | 1016.0 |
| 20260507040243 | 75 | 237 | 2.6 | 5.2 | 0.00 | 0.00 | 0.00 | 86 | 1015.9 |
| 20260507035739 | 75 | 204 | 0.9 | 2.6 | 0.00 | 0.00 | 0.00 | 85 | 1015.9 |
| 20260507035235 | 75 | 200 | 3.5 | 4.3 | 0.00 | 0.00 | 0.00 | 84 | 1015.6 |
| 20260507034733 | 75 | 227 | 0.9 | 2.6 | 0.00 | 0.00 | 0.00 | 85 | 1015.9 |
| 20260507034229 | 75 | 249 | 1.7 | 1.7 | 0.00 | 0.00 | 0.00 | 84 | 1015.8 |
| 20260507033728 | 75 | 260 | 0.9 | 2.6 | 0.00 | 0.00 | 0.00 | 84 | 1015.9 |
| 20260507033225 | 76 | 211 | 4.3 | 6.1 | 0.00 | 0.00 | 0.00 | 84 | 1015.6 |
| 20260507032722 | 76 | 173 | 2.6 | 4.3 | 0.00 | 0.00 | 0.00 | 84 | 1015.6 |
| 20260507032218 | 76 | 212 | 2.6 | 4.3 | 0.00 | 0.00 | 0.00 | 85 | 1015.5 |
| 20260507031715 | 77 | 241 | 2.6 | 2.6 | 0.00 | 0.00 | 0.00 | 82 | 1015.5 |
| 20260507031212 | 77 | 257 | 1.7 | 2.6 | 0.00 | 0.00 | 0.00 | 80 | 1015.6 |
| 20260507030708 | 77 | 250 | 2.6 | 4.3 | 0.00 | 0.00 | 0.00 | 79 | 1015.8 |
| 20260507030206 | 77 | 321 | 0.9 | 0.9 | 0.00 | 0.00 | 0.00 | 78 | 1015.6 |
| 20260507025703 | 78 | 246 | 0.9 | 4.3 | 0.00 | 0.00 | 0.00 | 77 | 1015.4 |
| 20260507025200 | 78 | 257 | 3.5 | 5.2 | 0.00 | 0.00 | 0.00 | 77 | 1015.4 |
| 20260507024658 | 78 | 236 | 0.9 | 4.3 | 0.00 | 0.00 | 0.00 | 76 | 1015.3 |
| 20260507024155 | 78 | 209 | 2.6 | 2.6 | 0.00 | 0.00 | 0.00 | 78 | 1015.3 |
| 20260507023650 | 77 | 219 | 2.6 | 4.3 | 0.00 | 0.00 | 0.00 | 79 | 1015.3 |
| 20260507023148 | 78 | 240 | 2.6 | 4.3 | 0.00 | 0.00 | 0.00 | 78 | 1015.3 |
| 20260507022645 | 78 | 227 | 2.6 | 2.6 | 0.00 | 0.00 | 0.00 | 79 | 1015.2 |
| 20260507022140 | 78 | 197 | 3.5 | 4.3 | 0.00 | 0.00 | 0.00 | 80 | 1015.3 |
| 20260507021637 | 78 | 250 | 2.6 | 4.3 | 0.00 | 0.00 | 0.00 | 80 | 1015.4 |
| 20260507021132 | 78 | 250 | 1.7 | 2.6 | 0.00 | 0.00 | 0.00 | 78 | 1015.3 |
| 20260507020631 | 79 | 272 | 2.6 | 5.2 | 0.00 | 0.00 | 0.00 | 77 | 1015.5 |
| 20260507020127 | 79 | 276 | 0.9 | 4.3 | 0.00 | 0.00 | 0.00 | 78 | 1015.5 |
| 20260507015625 | 80 | 248 | 4.3 | 5.2 | 0.00 | 0.00 | 0.00 | 76 | 1015.3 |
| 20260507015122 | 79 | 260 | 3.5 | 6.1 | 0.00 | 0.00 | 0.00 | 79 | 1015.2 |
| 20260507014619 | 78 | 240 | 1.7 | 4.3 | 0.00 | 0.00 | 0.00 | 81 | 1015.4 |
| 20260507014115 | 80 | 282 | 2.6 | 6.1 | 0.00 | 0.00 | 0.00 | 80 | 1015.3 |
| 20260507013612 | 78 | 276 | 0.9 | 6.1 | 0.00 | 0.00 | 0.00 | 81 | 1015.5 |
| 20260507013109 | 78 | 256 | 1.7 | 2.6 | 0.00 | 0.00 | 0.00 | 83 | 1015.4 |
| 20260507012606 | 77 | 242 | 0.9 | 2.6 | 0.00 | 0.00 | 0.00 | 82 | 1015.3 |
| 20260507012101 | 77 | 235 | 2.6 | 4.3 | 0.00 | 0.00 | 0.00 | 84 | 1015.5 |
| 20260507011600 | 77 | 212 | 1.7 | 5.2 | 0.00 | 0.00 | 0.00 | 85 | 1015.4 |
| 20260507011055 | 76 | 222 | 2.6 | 2.6 | 0.00 | 0.00 | 0.00 | 85 | 1015.5 |
| 20260507010550 | 76 | 334 | 2.6 | 2.6 | 0.00 | 0.00 | 0.00 | 86 | 1015.5 |
| 20260507010046 | 76 | 345 | 1.7 | 4.3 | 0.00 | 0.00 | 0.00 | 85 | 1015.5 |
| 20260507005544 | 77 | 294 | 2.6 | 4.3 | 0.00 | 0.00 | 0.00 | 83 | 1015.8 |
| 20260507005040 | 77 | 339 | 2.6 | 4.3 | 0.00 | 0.00 | 0.00 | 80 | 1015.8 |
| 20260507004538 | 76 | 254 | 0.9 | 2.6 | 0.00 | 0.00 | 0.00 | 82 | 1015.9 |
| 20260507004035 | 75 | 227 | 1.7 | 1.7 | 0.00 | 0.00 | 0.00 | 84 | 1015.9 |
| 20260507003530 | 75 | 339 | 2.6 | 2.6 | 0.00 | 0.00 | 0.00 | 84 | 1016.2 |
| 20260507003020 | 75 | 287 | 2.6 | 5.2 | 0.00 | 0.00 | 0.00 | 85 | 1016.1 |
| 20260507002517 | 76 | 212 | 2.6 | 5.2 | 0.00 | 0.00 | 0.00 | 85 | 1016.0 |
| 20260507002013 | 75 | 214 | 1.7 | 2.6 | 0.00 | 0.00 | 0.00 | 85 | 1016.1 |
| 20260507001509 | 75 | 241 | 2.6 | 4.3 | 0.00 | 0.00 | 0.00 | 85 | 1016.2 |
| 20260507001007 | 75 | 226 | 2.6 | 4.3 | 0.00 | 0.00 | 0.00 | 86 | 1016.1 |
| 20260507000503 | 75 | 239 | 0.9 | 5.2 | 0.00 | 0.00 | 0.00 | 87 | 1016.1 |
| 20260506235958 | 76 | 201 | 2.6 | 4.3 | 0.00 | 0.00 | 0.00 | 87 | 1016.4 |
| 20260506235456 | 77 | 261 | 2.6 | 4.3 | 0.00 | 0.00 | 0.00 | 85 | 1016.1 |
| 20260506234952 | 77 | 237 | 1.7 | 2.6 | 0.00 | 0.00 | 0.00 | 84 | 1016.3 |
| 20260506234449 | 76 | 250 | 2.6 | 6.1 | 0.00 | 0.00 | 0.00 | 86 | 1016.3 |
| 20260506233947 | 78 | 229 | 2.6 | 5.2 | 0.00 | 0.00 | 0.00 | 81 | 1016.6 |
| 20260506233443 | 77 | 325 | 1.7 | 4.3 | 0.00 | 0.00 | 0.00 | 82 | 1016.4 |
| 20260506232940 | 77 | 275 | 2.6 | 2.6 | 0.00 | 0.00 | 0.00 | 82 | 1016.5 |
| 20260506232436 | 78 | 209 | 1.7 | 4.3 | 0.00 | 0.00 | 0.00 | 80 | 1016.5 |
| 20260506231932 | 79 | 269 | 1.7 | 2.6 | 0.00 | 0.00 | 0.00 | 78 | 1016.6 |
| 20260506231430 | 78 | 262 | 0.0 | 0.0 | 0.00 | 0.00 | 0.00 | 80 | 1016.5 |
| 20260506230926 | 77 | 225 | 2.6 | 4.3 | 0.00 | 0.00 | 0.00 | 83 | 1016.9 |
| 20260506230423 | 76 | 263 | 0.0 | 0.0 | 0.00 | 0.00 | 0.00 | 83 | 1017.0 |
| 20260506225920 | 75 | 219 | 1.7 | 2.6 | 0.00 | 0.00 | 0.00 | 84 | 1017.0 |
| 20260506225417 | 75 | 274 | 0.9 | 2.6 | 0.00 | 0.00 | 0.00 | 83 | 1017.0 |
| 20260506224914 | 75 | 253 | 0.0 | 1.7 | 0.00 | 0.00 | 0.00 | 83 | 1017.0 |
| 20260506224411 | 75 | 246 | 2.6 | 4.3 | 0.00 | 0.00 | 0.00 | 84 | 1016.9 |
| 20260506223907 | 75 | 251 | 0.9 | 2.6 | 0.00 | 0.00 | 0.00 | 84 | 1017.1 |
| 20260506223403 | 75 | 238 | 2.6 | 4.3 | 0.00 | 0.00 | 0.00 | 84 | 1016.9 |
| 20260506222900 | 75 | 211 | 2.6 | 5.2 | 0.00 | 0.00 | 0.00 | 82 | 1017.2 |
| 20260506222356 | 75 | 225 | 2.6 | 2.6 | 0.00 | 0.00 | 0.00 | 85 | 1016.9 |
| 20260506221854 | 75 | 218 | 2.6 | 5.2 | 0.00 | 0.00 | 0.00 | 85 | 1016.8 |
| 20260506221351 | 76 | 254 | 2.6 | 2.6 | 0.00 | 0.00 | 0.00 | 84 | 1017.0 |
| 20260506220848 | 77 | 222 | 2.6 | 7.0 | 0.00 | 0.00 | 0.00 | 83 | 1016.9 |
| 20260506220343 | 78 | 195 | 3.5 | 4.3 | 0.00 | 0.00 | 0.00 | 79 | 1016.9 |
| 20260506215841 | 79 | 241 | 5.2 | 7.0 | 0.00 | 0.00 | 0.00 | 78 | 1016.6 |
| 20260506215336 | 79 | 4 | 1.7 | 2.6 | 0.00 | 0.00 | 0.00 | 76 | 1016.6 |
| 20260506214832 | 79 | 207 | 2.6 | 4.3 | 0.00 | 0.00 | 0.00 | 75 | 1016.8 |
| 20260506214329 | 79 | 234 | 2.6 | 5.2 | 0.00 | 0.00 | 0.00 | 76 | 1016.9 |
| 20260506213828 | 78 | 216 | 2.6 | 4.3 | 0.00 | 0.00 | 0.00 | 78 | 1016.8 |
| 20260506213325 | 79 | 205 | 2.6 | 5.2 | 0.00 | 0.00 | 0.00 | 76 | 1017.1 |
| 20260506212822 | 78 | 247 | 1.7 | 5.2 | 0.00 | 0.00 | 0.00 | 76 | 1017.3 |
| 20260506212317 | 79 | 224 | 1.7 | 2.6 | 0.00 | 0.00 | 0.00 | 77 | 1017.2 |
| 20260506211813 | 78 | 237 | 1.7 | 4.3 | 0.00 | 0.00 | 0.00 | 77 | 1017.3 |
| 20260506211309 | 78 | 212 | 1.7 | 2.6 | 0.00 | 0.00 | 0.00 | 78 | 1017.3 |
| 20260506210807 | 77 | 180 | 2.6 | 5.2 | 0.00 | 0.00 | 0.00 | 78 | 1017.5 |
| 20260506210303 | 77 | 197 | 3.5 | 5.2 | 0.00 | 0.00 | 0.00 | 79 | 1017.5 |
| 20260506205800 | 78 | 213 | 4.3 | 6.1 | 0.00 | 0.00 | 0.00 | 79 | 1017.5 |
| 20260506205256 | 77 | 259 | 3.5 | 5.2 | 0.00 | 0.00 | 0.00 | 79 | 1017.4 |
| 20260506204753 | 76 | 212 | 2.6 | 5.2 | 0.00 | 0.00 | 0.00 | 81 | 1017.1 |
| 20260506204251 | 76 | 194 | 1.7 | 4.3 | 0.00 | 0.00 | 0.00 | 84 | 1017.4 |
| 20260506203748 | 76 | 230 | 0.9 | 5.2 | 0.00 | 0.00 | 0.00 | 85 | 1017.4 |
| 20260506203245 | 76 | 231 | 1.7 | 5.2 | 0.00 | 0.00 | 0.00 | 85 | 1017.4 |
| 20260506202742 | 76 | 266 | 2.6 | 6.1 | 0.00 | 0.00 | 0.00 | 83 | 1017.3 |
| 20260506202239 | 77 | 215 | 2.6 | 5.2 | 0.00 | 0.00 | 0.00 | 82 | 1017.5 |
| 20260506201736 | 76 | 222 | 2.6 | 4.3 | 0.00 | 0.00 | 0.00 | 80 | 1017.3 |
| 20260506201232 | 76 | 200 | 4.3 | 6.1 | 0.00 | 0.00 | 0.00 | 81 | 1017.3 |
| 20260506200729 | 76 | 261 | 2.6 | 5.2 | 0.00 | 0.00 | 0.00 | 82 | 1017.5 |
| 20260506200226 | 77 | 231 | 3.5 | 6.1 | 0.00 | 0.00 | 0.00 | 82 | 1017.5 |
| 20260506195722 | 77 | 190 | 3.5 | 5.2 | 0.00 | 0.00 | 0.00 | 81 | 1017.5 |
| 20260506195219 | 77 | 248 | 2.6 | 5.2 | 0.00 | 0.00 | 0.00 | 81 | 1017.2 |
| 20260506194716 | 77 | 237 | 2.6 | 4.3 | 0.00 | 0.00 | 0.00 | 79 | 1017.1 |
| 20260506194212 | 78 | 252 | 1.7 | 2.6 | 0.00 | 0.00 | 0.00 | 76 | 1017.1 |
| 20260506193711 | 77 | 190 | 2.6 | 4.3 | 0.00 | 0.00 | 0.00 | 75 | 1017.2 |
| 20260506193207 | 77 | 216 | 2.6 | 5.2 | 0.00 | 0.00 | 0.00 | 76 | 1017.3 |
| 20260506192704 | 77 | 229 | 1.7 | 6.1 | 0.00 | 0.00 | 0.00 | 77 | 1017.1 |
| 20260506192200 | 77 | 245 | 0.0 | 0.0 | 0.00 | 0.00 | 0.00 | 77 | 1016.8 |
| 20260506191657 | 77 | 216 | 0.0 | 1.7 | 0.00 | 0.00 | 0.00 | 78 | 1016.9 |
| 20260506191153 | 76 | 225 | 2.6 | 4.3 | 0.00 | 0.00 | 0.00 | 77 | 1016.8 |
| 20260506190650 | 76 | 212 | 3.5 | 5.2 | 0.00 | 0.00 | 0.00 | 77 | 1017.2 |
| 20260506190147 | 75 | 205 | 4.3 | 5.2 | 0.00 | 0.00 | 0.00 | 79 | 1017.3 |
| 20260506185644 | 75 | 210 | 1.7 | 1.7 | 0.00 | 0.00 | 0.00 | 79 | 1017.1 |
| 20260506185140 | 75 | 243 | 1.7 | 2.6 | 0.00 | 0.00 | 0.00 | 79 | 1017.3 |
| 20260506184638 | 75 | 254 | 0.9 | 2.6 | 0.00 | 0.00 | 0.00 | 79 | 1017.4 |
| 20260506184135 | 75 | 236 | 0.0 | 0.0 | 0.00 | 0.00 | 0.00 | 80 | 1017.1 |
| 20260506183632 | 75 | 236 | 0.0 | 0.0 | 0.00 | 0.00 | 0.00 | 80 | 1017.0 |
| 20260506183128 | 74 | 237 | 0.0 | 0.0 | 0.00 | 0.00 | 0.00 | 80 | 1017.1 |
| 20260506182625 | 74 | 235 | 0.0 | 0.0 | 0.00 | 0.00 | 0.00 | 81 | 1017.1 |
| 20260506182122 | 74 | 265 | 0.0 | 0.0 | 0.00 | 0.00 | 0.00 | 81 | 1017.1 |
| 20260506181620 | 74 | 231 | 0.0 | 0.0 | 0.00 | 0.00 | 0.00 | 80 | 1017.3 |
| 20260506181117 | 73 | 246 | 0.0 | 0.0 | 0.00 | 0.00 | 0.00 | 80 | 1017.3 |
| 20260506180614 | 72 | 306 | 0.0 | 0.0 | 0.00 | 0.00 | 0.00 | 81 | 1017.2 |
| 20260506180110 | 72 | 241 | 0.0 | 0.0 | 0.00 | 0.00 | 0.00 | 82 | 1017.2 |
| 20260506175606 | 71 | 254 | 0.0 | 0.0 | 0.00 | 0.00 | 0.00 | 83 | 1017.3 |
| 20260506175102 | 71 | 243 | 0.0 | 0.0 | 0.00 | 0.00 | 0.00 | 85 | 1017.0 |
| 20260506174602 | 70 | 246 | 0.0 | 0.0 | 0.00 | 0.00 | 0.00 | 87 | 1017.3 |
| 20260506174057 | 70 | 265 | 0.0 | 0.0 | 0.00 | 0.00 | 0.00 | 89 | 1017.2 |
| 20260506173555 | 69 | 294 | 0.0 | 0.0 | 0.00 | 0.00 | 0.00 | 88 | 1017.0 |
| 20260506173052 | 69 | 294 | 0.0 | 0.0 | 0.00 | 0.00 | 0.00 | 88 | 1016.5 |
| 20260506172549 | 69 | 286 | 0.0 | 0.0 | 0.00 | 0.00 | 0.00 | 88 | 1016.6 |
| 20260506172045 | 68 | 291 | 0.0 | 0.0 | 0.00 | 0.00 | 0.00 | 88 | 1016.6 |
| 20260506171543 | 68 | 277 | 0.0 | 0.0 | 0.00 | 0.00 | 0.00 | 88 | 1016.5 |
| 20260506171040 | 68 | 295 | 0.0 | 0.0 | 0.00 | 0.00 | 0.00 | 88 | 1016.3 |
| 20260506170537 | 68 | 289 | 0.0 | 0.0 | 0.00 | 0.00 | 0.00 | 89 | 1016.3 |
| 20260506170029 | 67 | 288 | 0.0 | 0.0 | 0.00 | 0.00 | 0.00 | 90 | 1016.3 |
| 20260506165528 | 66 | 285 | 0.0 | 0.0 | 0.00 | 0.00 | 0.00 | 90 | 1016.3 |
| 20260506165023 | 66 | 282 | 0.0 | 0.0 | 0.00 | 0.00 | 0.00 | 91 | 1016.2 |
| 20260506164520 | 65 | 280 | 0.0 | 0.0 | 0.00 | 0.00 | 0.00 | 91 | 1016.0 |
| 20260506164018 | 65 | 264 | 0.0 | 0.0 | 0.00 | 0.00 | 0.00 | 92 | 1016.0 |
| 20260506163514 | 65 | 268 | 0.0 | 0.0 | 0.00 | 0.00 | 0.00 | 92 | 1015.8 |
| 20260506163009 | 65 | 279 | 0.0 | 0.0 | 0.00 | 0.00 | 0.00 | 92 | 1015.9 |
| 20260506162506 | 64 | 267 | 0.0 | 0.0 | 0.00 | 0.00 | 0.00 | 92 | 1015.9 |
| 20260506161957 | 64 | 281 | 0.0 | 0.0 | 0.00 | 0.00 | 0.00 | 92 | 1015.6 |
| 20260506161455 | 64 | 274 | 0.0 | 0.9 | 0.00 | 0.00 | 0.00 | 92 | 1015.9 |
| 20260506160952 | 64 | 305 | 0.0 | 0.0 | 0.00 | 0.00 | 0.00 | 92 | 1015.8 |
| 20260506160450 | 64 | 282 | 0.0 | 0.0 | 0.00 | 0.00 | 0.00 | 93 | 1015.6 |